When you browse on this site, cookies collect data to enhance your experience and personalize the content and advertising you see.
Visit our Privacy Policy to learn more. By continuing to use the site, you agree to this use of cookies and data.
  • In United Kingdom
  • List of Countries
  • For 7 days
  • Water Temperature
  • Satellite Maps
  • Weather Map
  • Weather Widgets
  • user-avatar
    Login

    Hourly Weather Les Lilas

    Today, 21 February, Thursday

    Time Temperature Precipitation Wind Pressure Humidity
    00:00 +9°C° 0 mm 1 mps 761 mmHg 84%
    01:00 +8°C° 0 mm 1 mps 761 mmHg 85%
    02:00 +8°C° 0 mm 1 mps 762 mmHg 86%
    03:00 +8°C° 0 mm 1 mps 762 mmHg 87%
    04:00 +8°C° 0 mm 1 mps 762 mmHg 88%
    05:00 +7°C° 0 mm 1 mps 762 mmHg 89%
    06:00 +7°C° 0 mm 1 mps 762 mmHg 90%
    07:00 +8°C° 0 mm 1 mps 762 mmHg 88%
    08:00 +9°C° 0 mm 1 mps 763 mmHg 85%
    09:00 +9°C° 0 mm 1 mps 763 mmHg 82%
    10:00 +11°C° 0 mm 1 mps 763 mmHg 76%
    11:00 +12°C° 0 mm 1 mps 763 mmHg 70%
    12:00 +14°C° 0 mm 1 mps 763 mmHg 63%
    13:00 +14°C° 0 mm 1 mps 763 mmHg 60%
    14:00 +15°C° 0 mm 1 mps 763 mmHg 58%
    15:00 +15°C° 0 mm 1 mps 763 mmHg 55%
    16:00 +14°C° 0 mm 1 mps 763 mmHg 59%
    17:00 +12°C° 0 mm 0 mps 764 mmHg 62%
    18:00 +11°C° 0 mm 0 mps 764 mmHg 66%
    19:00 +11°C° 0 mm 0 mps 764 mmHg 69%
    20:00 +10°C° 0 mm 0 mps 765 mmHg 71%
    21:00 +9°C° 0 mm 0 mps 765 mmHg 73%
    22:00 +9°C° 0 mm 0 mps 766 mmHg 75%
    23:00 +9°C° 0 mm 0 mps 766 mmHg 76%

    Tomorrow, 22 February, Friday

    Time Temperature Precipitation Wind Pressure Humidity
    00:00 +8°C° 0 mm 0 mps 766 mmHg 78%
    01:00 +8°C° 0 mm 0 mps 766 mmHg 79%
    02:00 +8°C° 0 mm 0 mps 766 mmHg 80%
    03:00 +7°C° 0 mm 0 mps 766 mmHg 81%
    04:00 +7°C° 0 mm 0 mps 766 mmHg 82%
    05:00 +7°C° 0 mm 0 mps 766 mmHg 83%
    06:00 +7°C° 0 mm 0 mps 767 mmHg 84%
    07:00 +8°C° 0 mm 1 mps 767 mmHg 81%
    08:00 +9°C° 0 mm 1 mps 767 mmHg 78%
    09:00 +10°C° 0 mm 1 mps 768 mmHg 75%
    10:00 +12°C° 0 mm 1 mps 768 mmHg 69%
    11:00 +13°C° 0 mm 1 mps 768 mmHg 62%
    12:00 +15°C° 0 mm 1 mps 768 mmHg 56%
    13:00 +15°C° 0 mm 1 mps 768 mmHg 54%
    14:00 +16°C° 0 mm 1 mps 767 mmHg 52%
    15:00 +16°C° 0 mm 1 mps 767 mmHg 51%
    16:00 +15°C° 0 mm 1 mps 767 mmHg 56%
    17:00 +14°C° 0 mm 2 mps 767 mmHg 62%
    18:00 +13°C° 0 mm 2 mps 767 mmHg 67%
    19:00 +13°C° 0 mm 2 mps 767 mmHg 71%
    20:00 +12°C° 0 mm 2 mps 767 mmHg 74%
    21:00 +12°C° 0 mm 2 mps 767 mmHg 78%
    22:00 +10°C° 0 mm 2 mps 767 mmHg 81%
    23:00 +10°C° 0 mm 2 mps 767 mmHg 83%

    Day after tomorrow, 23 February, Saturday

    Time Temperature Precipitation Wind Pressure Humidity
    00:00 +9°C° 0 mm 2 mps 767 mmHg 86%
    01:00 +9°C° 0 mm 2 mps 767 mmHg 87%
    02:00 +9°C° 0 mm 2 mps 767 mmHg 88%
    03:00 +8°C° 0 mm 2 mps 766 mmHg 89%
    04:00 +8°C° 0 mm 2 mps 766 mmHg 88%
    05:00 +7°C° 0 mm 2 mps 766 mmHg 87%
    06:00 +7°C° 0 mm 3 mps 766 mmHg 85%
    07:00 +8°C° 0 mm 3 mps 766 mmHg 80%
    08:00 +8°C° 0 mm 3 mps 767 mmHg 75%
    09:00 +8°C° 0 mm 4 mps 767 mmHg 70%
    10:00 +11°C° 0 mm 3 mps 767 mmHg 64%
    11:00 +12°C° 0 mm 3 mps 767 mmHg 58%
    12:00 +13°C° 0 mm 3 mps 766 mmHg 52%
    13:00 +14°C° 0 mm 3 mps 766 mmHg 50%
    14:00 +14°C° 0 mm 3 mps 766 mmHg 48%
    15:00 +16°C° 0 mm 3 mps 765 mmHg 47%
    16:00 +14°C° 0 mm 3 mps 766 mmHg 51%
    17:00 +13°C° 0 mm 3 mps 766 mmHg 55%
    18:00 +11°C° 0 mm 3 mps 766 mmHg 60%
    19:00 +11°C° 0 mm 3 mps 766 mmHg 60%
    20:00 +10°C° 0 mm 3 mps 766 mmHg 61%
    21:00 +9°C° 0 mm 3 mps 767 mmHg 61%
    22:00 +8°C° 0 mm 2 mps 767 mmHg 63%
    23:00 +8°C° 0 mm 2 mps 767 mmHg 64%

    24 February, Sunday

    Time Temperature Precipitation Wind Pressure Humidity
    00:00 +7°C° 0 mm 2 mps 767 mmHg 66%
    01:00 +7°C° 0 mm 2 mps 767 mmHg 67%
    02:00 +6°C° 0 mm 2 mps 766 mmHg 68%
    03:00 +6°C° 0 mm 2 mps 766 mmHg 69%
    04:00 +6°C° 0 mm 2 mps 766 mmHg 69%
    05:00 +6°C° 0 mm 1 mps 767 mmHg 69%
    06:00 +6°C° 0 mm 1 mps 767 mmHg 69%
    07:00 +7°C° 0 mm 1 mps 767 mmHg 65%
    08:00 +6°C° 0 mm 2 mps 767 mmHg 61%
    09:00 +7°C° 0 mm 2 mps 767 mmHg 57%
    10:00 +9°C° 0 mm 2 mps 767 mmHg 51%
    11:00 +12°C° 0 mm 2 mps 767 mmHg 45%
    12:00 +13°C° 0 mm 2 mps 767 mmHg 39%
    13:00 +14°C° 0 mm 2 mps 767 mmHg 38%
    14:00 +15°C° 0 mm 2 mps 767 mmHg 37%
    15:00 +15°C° 0 mm 2 mps 767 mmHg 36%
    16:00 +14°C° 0 mm 2 mps 767 mmHg 42%
    17:00 +13°C° 0 mm 2 mps 767 mmHg 47%
    18:00 +12°C° 0 mm 2 mps 767 mmHg 53%
    19:00 +10°C° 0 mm 2 mps 768 mmHg 56%
    20:00 +10°C° 0 mm 2 mps 768 mmHg 59%
    21:00 +9°C° 0 mm 2 mps 768 mmHg 62%
    22:00 +8°C° 0 mm 2 mps 768 mmHg 63%
    23:00 +9°C° 0 mm 1 mps 768 mmHg 64%

    25 February, Monday

    Time Temperature Precipitation Wind Pressure Humidity
    00:00 +8°C° 0 mm 1 mps 769 mmHg 65%
    01:00 +8°C° 0 mm 1 mps 768 mmHg 65%
    02:00 +8°C° 0 mm 1 mps 768 mmHg 65%
    03:00 +7°C° 0 mm 1 mps 768 mmHg 65%
    04:00 +7°C° 0 mm 1 mps 768 mmHg 65%
    05:00 +7°C° 0 mm 1 mps 768 mmHg 64%
    06:00 +6°C° 0 mm 2 mps 768 mmHg 63%
    07:00 +6°C° 0 mm 2 mps 768 mmHg 60%
    08:00 +7°C° 0 mm 2 mps 768 mmHg 57%
    09:00 +8°C° 0 mm 2 mps 769 mmHg 54%
    10:00 +10°C° 0 mm 2 mps 768 mmHg 50%
    11:00 +12°C° 0 mm 2 mps 768 mmHg 45%
    12:00 +14°C° 0 mm 2 mps 768 mmHg 41%
    13:00 +15°C° 0 mm 2 mps 768 mmHg 42%
    14:00 +16°C° 0 mm 2 mps 767 mmHg 43%
    15:00 +16°C° 0 mm 3 mps 767 mmHg 44%
    16:00 +14°C° 0 mm 3 mps 767 mmHg 50%
    17:00 +14°C° 0 mm 2 mps 767 mmHg 56%
    18:00 +13°C° 0 mm 2 mps 767 mmHg 62%
    19:00 +12°C° 0 mm 2 mps 767 mmHg 64%
    20:00 +10°C° 0 mm 3 mps 767 mmHg 65%
    21:00 +10°C° 0 mm 3 mps 767 mmHg 67%
    22:00 +9°C° 0 mm 3 mps 767 mmHg 67%
    23:00 +9°C° 0 mm 3 mps 767 mmHg 68%

    26 February, Tuesday

    Time Temperature Precipitation Wind Pressure Humidity
    00:00 +8°C° 0 mm 3 mps 766 mmHg 68%
    01:00 +7°C° 0 mm 3 mps 766 mmHg 68%
    02:00 +7°C° 0 mm 2 mps 766 mmHg 69%
    03:00 +6°C° 0 mm 2 mps 765 mmHg 70%
    04:00 +6°C° 0 mm 2 mps 765 mmHg 71%
    05:00 +6°C° 0 mm 2 mps 765 mmHg 73%
    06:00 +6°C° 0 mm 1 mps 765 mmHg 74%
    07:00 +6°C° 0 mm 2 mps 765 mmHg 71%
    08:00 +7°C° 0 mm 2 mps 765 mmHg 67%
    09:00 +8°C° 0 mm 3 mps 765 mmHg 64%
    10:00 +9°C° 0 mm 3 mps 764 mmHg 60%
    11:00 +11°C° 0 mm 3 mps 764 mmHg 57%
    12:00 +13°C° 0 mm 3 mps 764 mmHg 53%
    13:00 +14°C° 0 mm 3 mps 763 mmHg 53%
    14:00 +14°C° 0 mm 3 mps 763 mmHg 53%
    15:00 +16°C° 0 mm 3 mps 762 mmHg 53%
    16:00 +15°C° 0 mm 2 mps 762 mmHg 60%
    17:00 +14°C° 0 mm 2 mps 762 mmHg 66%
    18:00 +14°C° 0 mm 2 mps 762 mmHg 73%
    19:00 +13°C° 0 mm 2 mps 762 mmHg 75%
    20:00 +12°C° 0 mm 2 mps 762 mmHg 78%
    21:00 +12°C° 0 mm 2 mps 762 mmHg 80%
    22:00 +10°C° 0 mm 2 mps 762 mmHg 80%
    23:00 +10°C° 0 mm 2 mps 761 mmHg 80%
    Show more